Погода в Буранном

Россия / Челябинская область     53°23′40″N   59°19′57″E
темп.,
°C
ветер,
м/с
пор.,
м/с
влажн.,
%
обл.,
%
осадки,
мм/ч
давл.,
гПа
погр.,
м
16 апреля, пт
пт1623:00+10юз22593 0.0 102215
02:00+8з11642 0.0 102110
05:00+7зсз11660 0.0 102110
08:00+8ссз12690 0.0 102140
11:00+14св35540 0.0 1020513
14:00+17в44380 0.0 10201539
17:00+16св76525 0.0 10201247
20:00+9св7108311 0.0 1023452
17 апреля, сб
сб1723:00+7св5683100 0.0 1025588
02:00+7св3587100 0.0 1025346
05:00+6всв2390100 0.1 1025204
08:00+6в1287100 0.0 1024186
11:00+8вюв1180100 0.0 1024389
14:00+10ююв227198 0.0 1023663
17:00+12ююз226184 0.0 10221103
20:00+10ю367314 0.0 1021139
18 апреля, вс
вс1823:00+7ююз23827 0.0 102141
02:00+6зюз11876 0.0 102010
05:00+5с349253 0.0 102062
08:00+6всв24613 0.0 1020218
11:00+9ссз23585 0.0 1019903
14:00+12с45375 0.0 10191800
17:00+12ссв553550 0.0 10192008
20:00+4всв91172100 0.0 1024782
19 апреля, пн
пн1923:00+1всв81052100 0.0 10271034
02:000всв71056100 0.0 10291054
05:00−2всв6959100 0.0 10311086
08:00−2всв795016 0.0 10331163
11:000всв783582 0.0 10331432
14:00+2всв783240 0.0 10321656
17:00+2всв7832100 0.0 10321714
20:000всв6838100 0.0 10341132
20 апреля, вт
вт2023:00−2всв58440 0.0 1035848
02:00−3всв48450 0.0 1036792
05:00−3всв37470 0.0 1037466
08:00−2всв46410 0.0 1038880
11:00+1всв45300 0.0 10381255
14:00+4всв34270 0.0 10361392
17:00+5всв23260 0.0 10351383
20:00+3всв22350 0.0 103672